CW6353 Weather Reports


Display with metric or nautical units.
time (UTC)temp
F
wind
direction
speed
MPH
gust
MPH
rain 1hr
in
rain 24hr
in
rain mn
in
humidity
%
barometer
mb
20260905051014 76 256 2.0 6.0 0.00 0.00 0.00 83 1014.6
20260905050512 76 291 2.0 6.0 0.00 0.00 0.00 83 1014.6
20260905050036 76 261 3.0 6.0 0.00 0.00 0.00 82 1014.7
20260905045514 76 275 2.0 6.0 0.00 0.00 0.00 83 1014.8
20260905045008 76 276 2.0 6.0 0.00 0.00 0.00 83 1014.8
20260905044539 76 250 2.0 3.0 0.00 0.00 0.00 83 1014.7
20260905044011 76 266 2.0 3.0 0.00 0.00 0.00 82 1014.7
20260905043507 77 262 2.0 4.0 0.00 0.00 0.00 81 1014.6
20260905043015 77 261 1.0 4.0 0.00 0.00 0.00 81 1014.6
20260905042513 77 271 2.0 4.0 0.00 0.00 0.00 81 1014.6
20260905042008 77 270 2.0 5.0 0.00 0.00 0.00 80 1014.6
20260905041521 77 267 3.0 5.0 0.00 0.00 0.00 81 1014.7
20260905041003 77 251 2.0 4.0 0.00 0.00 0.00 80 1014.8
20260905040502 77 254 2.0 4.0 0.00 0.00 0.00 80 1014.8
20260905040005 77 281 2.0 4.0 0.00 0.00 0.00 80 1014.8
20260905035504 77 259 2.0 4.0 0.00 0.00 0.00 80 1014.8
20260905035004 77 270 2.0 3.0 0.00 0.00 0.00 80 1014.8
20260905034504 77 238 1.0 3.0 0.00 0.00 0.00 80 1014.9
20260905034004 77 265 2.0 3.0 0.00 0.00 0.00 80 1015.0
20260905033503 76 250 2.0 3.0 0.00 0.00 0.00 80 1015.0
20260905033025 76 261 1.0 3.0 0.00 0.00 0.00 80 1015.0
20260905032502 76 261 2.0 3.0 0.00 0.00 0.00 80 1015.1
20260905032003 76 273 2.0 3.0 0.00 0.00 0.00 81 1015.1
20260905031522 76 262 1.0 4.0 0.00 0.00 0.00 82 1015.1
20260905031004 76 252 2.0 6.0 0.00 0.00 0.00 82 1015.2
20260905030503 76 249 3.0 6.0 0.00 0.00 0.00 83 1015.1
20260905030006 76 179 0.0 0.0 0.00 0.00 0.00 81 1014.9
20260905025506 76 179 0.0 0.0 0.00 0.00 0.00 81 1014.9
20260905025004 76 179 0.0 0.0 0.00 0.00 0.00 81 1014.9
20260905024505 76 179 0.0 0.0 0.00 0.00 0.00 81 1015.1
20260905024006 76 179 0.0 0.0 0.00 0.00 0.00 80 1015.2
20260905023504 76 179 0.0 0.0 0.00 0.00 0.00 80 1015.2
20260905023014 76 179 0.0 2.0 0.00 0.00 0.00 80 1015.3
20260905022503 76 179 0.0 1.0 0.00 0.00 0.00 79 1015.2
20260905022004 76 179 0.0 1.0 0.00 0.00 0.00 79 1015.2
20260905021503 76 179 0.0 2.0 0.00 0.00 0.00 79 1015.1
20260905021008 76 179 0.0 2.0 0.00 0.00 0.00 78 1015.1
20260905020507 77 179 0.0 2.0 0.00 0.00 0.00 77 1015.1
20260905020008 77 179 0.0 1.0 0.00 0.00 0.00 77 1015.0
20260905015509 77 180 0.0 0.0 0.00 0.00 0.00 77 1014.9
20260905015003 77 179 0.0 0.0 0.00 0.00 0.00 76 1014.6
20260905014504 77 179 0.0 0.0 0.00 0.00 0.00 75 1014.8
20260905014003 78 179 0.0 0.0 0.00 0.00 0.00 74 1014.8
20260905013507 78 179 0.0 2.0 0.00 0.00 0.00 73 1014.7
20260905013004 78 179 0.0 2.0 0.00 0.00 0.00 72 1014.7
20260905012503 78 179 0.0 2.0 0.00 0.00 0.00 71 1014.7
20260905012004 78 179 1.0 2.0 0.00 0.00 0.00 71 1014.6
20260905011510 79 179 1.0 2.0 0.00 0.00 0.00 70 1014.6
20260905011004 79 179 1.0 2.0 0.00 0.00 0.00 69 1014.5
20260905010509 79 179 0.0 2.0 0.00 0.00 0.00 68 1014.6
20260905010013 79 179 0.0 2.0 0.00 0.00 0.00 68 1014.6
20260905005504 80 149 1.0 4.0 0.00 0.00 0.00 68 1014.5
20260905005011 80 174 0.0 4.0 0.00 0.00 0.00 67 1014.5
20260905004516 81 200 1.0 2.0 0.00 0.00 0.00 66 1014.4
20260905004004 81 113 0.0 3.0 0.00 0.00 0.00 65 1014.4
20260905003512 82 113 1.0 3.0 0.00 0.00 0.00 64 1014.4
20260905003004 83 111 1.0 3.0 0.00 0.00 0.00 63 1014.4
20260905002504 83 97 2.0 4.0 0.00 0.00 0.00 62 1014.5
20260905002005 84 96 2.0 4.0 0.00 0.00 0.00 60 1014.3
20260905001517 85 91 2.0 4.0 0.00 0.00 0.00 59 1014.3
20260905001004 86 109 2.0 3.0 0.00 0.00 0.00 57 1014.3
20260905000509 87 99 1.0 3.0 0.00 0.00 0.00 55 1014.3
20260905000010 88 96 1.0 3.0 0.00 0.00 0.00 54 1014.4
20260904235508 89 96 2.0 3.0 0.00 0.00 0.00 50 1014.4
20260904235005 89 100 2.0 6.0 0.00 0.00 0.00 50 1014.4
20260904234531 90 114 2.0 5.0 0.00 0.00 0.00 49 1014.4
20260904234011 91 100 2.0 5.0 0.00 0.00 0.00 46 1014.3
20260904233506 91 148 2.0 7.0 0.00 0.00 0.00 45 1014.2
20260904233026 92 128 4.0 7.0 0.00 0.00 0.00 44 1014.3
20260904232509 92 138 2.0 4.0 0.00 0.00 0.00 43 1014.3
20260904232002 92 115 2.0 8.0 0.00 0.00 0.00 43 1014.1
20260904231508 93 110 3.0 11.0 0.00 0.00 0.00 42 1014.2
20260904231006 93 138 4.0 11.0 0.00 0.00 0.00 41 1014.0
20260904230506 94 130 5.0 11.0 0.00 0.00 0.00 42 1013.9
20260904230011 94 100 3.0 8.0 0.00 0.00 0.00 43 1013.9
20260904225503 94 109 3.0 9.0 0.00 0.00 0.00 44 1013.8
20260904225009 94 89 2.0 11.0 0.00 0.00 0.00 43 1013.7
20260904224516 94 90 7.0 11.0 0.00 0.00 0.00 42 1013.8
20260904224003 94 123 4.0 11.0 0.00 0.00 0.00 43 1013.8
20260904223513 94 69 4.0 11.0 0.00 0.00 0.00 43 1013.7
20260904223014 95 117 6.0 11.0 0.00 0.00 0.00 42 1013.7
20260904222511 95 137 5.0 11.0 0.00 0.00 0.00 43 1013.7
20260904222012 95 109 4.0 11.0 0.00 0.00 0.00 42 1013.6
20260904221510 95 134 3.0 14.0 0.00 0.00 0.00 42 1013.5
20260904221014 95 106 8.0 14.0 0.00 0.00 0.00 43 1013.5
20260904220509 95 119 3.0 11.0 0.00 0.00 0.00 43 1013.5
20260904220017 95 99 6.0 13.0 0.00 0.00 0.00 42 1013.4
20260904215507 95 87 6.0 13.0 0.00 0.00 0.00 43 1013.4
20260904215008 95 174 8.0 11.0 0.00 0.00 0.00 41 1013.3
20260904214502 95 136 4.0 17.0 0.00 0.00 0.00 43 1013.3
20260904214002 95 36 5.0 17.0 0.00 0.00 0.00 42 1013.4
20260904213504 96 134 4.0 12.0 0.00 0.00 0.00 41 1013.6
20260904213009 96 83 7.0 12.0 0.00 0.00 0.00 40 1013.5
20260904212504 96 173 5.0 11.0 0.00 0.00 0.00 40 1013.5
20260904212003 96 103 3.0 13.0 0.00 0.01 0.00 41 1013.5
20260904211503 96 97 8.0 13.0 0.00 0.06 0.00 40 1013.6
20260904211004 96 51 5.0 13.0 0.00 0.14 0.00 39 1013.6
20260904210507 97 110 4.0 9.0 0.00 0.14 0.00 39 1013.6
20260904210003 97 24 2.0 11.0 0.00 0.14 0.00 39 1013.5
20260904205506 96 51 3.0 12.0 0.00 0.14 0.00 38 1013.6
20260904205003 96 104 7.0 12.0 0.00 0.14 0.00 39 1013.5
20260904204503 96 121 3.0 9.0 0.00 0.14 0.00 39 1013.6
20260904204005 95 141 6.0 14.0 0.00 0.14 0.00 40 1013.6
20260904203507 95 90 7.0 14.0 0.00 0.14 0.00 39 1013.7
20260904203017 96 109 9.0 14.0 0.00 0.14 0.00 38 1013.8
20260904202501 96 150 10.0 13.0 0.00 0.14 0.00 39 1013.8
20260904202002 96 65 3.0 12.0 0.00 0.14 0.00 40 1013.8
20260904201506 96 82 8.0 13.0 0.00 0.14 0.00 40 1014.0
20260904201006 96 97 8.0 13.0 0.00 0.14 0.00 40 1014.1
20260904200503 96 76 6.0 12.0 0.00 0.14 0.00 41 1014.1
20260904200005 96 152 8.0 12.0 0.00 0.14 0.00 40 1014.2
20260904195504 95 179 6.0 14.0 0.00 0.14 0.00 41 1014.2
20260904195004 95 75 7.0 14.0 0.00 0.14 0.00 39 1014.4
20260904194523 96 101 7.0 14.0 0.00 0.14 0.00 40 1014.5
20260904194003 96 105 7.0 14.0 0.00 0.14 0.00 39 1014.6
20260904193510 95 77 5.0 15.0 0.00 0.14 0.00 41 1014.6
20260904193006 96 38 10.0 15.0 0.00 0.14 0.00 38 1014.7
20260904192506 96 97 5.0 13.0 0.00 0.14 0.00 40 1014.8
20260904192005 96 111 5.0 14.0 0.00 0.14 0.00 43 1014.8
20260904191504 95 47 1.0 14.0 0.00 0.14 0.00 41 1014.9
20260904191002 95 119 9.0 14.0 0.00 0.14 0.00 40 1015.1
20260904190503 95 107 8.0 13.0 0.00 0.14 0.00 41 1015.2
20260904190003 95 172 3.0 10.0 0.00 0.14 0.00 41 1015.3
20260904185504 95 105 7.0 13.0 0.00 0.14 0.00 41 1015.4
20260904185004 95 137 6.0 14.0 0.00 0.14 0.00 42 1015.5
20260904184505 95 135 6.0 17.0 0.00 0.14 0.00 43 1015.5
20260904184004 95 145 7.0 17.0 0.00 0.14 0.00 42 1015.4
20260904183503 95 100 6.0 14.0 0.00 0.14 0.00 43 1015.5
20260904183008 94 103 8.0 14.0 0.00 0.14 0.00 43 1015.5
20260904182508 94 131 7.0 14.0 0.00 0.14 0.00 45 1015.6
20260904182006 94 118 7.0 13.0 0.00 0.14 0.00 45 1015.7
20260904181516 93 129 4.0 13.0 0.00 0.14 0.00 48 1015.8
20260904181004 93 148 7.0 12.0 0.00 0.14 0.00 48 1015.9
20260904180511 93 74 6.0 14.0 0.00 0.14 0.00 46 1016.1
20260904180014 93 74 8.0 14.0 0.00 0.14 0.00 46 1016.1
20260904175504 93 105 5.0 10.0 0.00 0.14 0.00 47 1016.1
20260904175004 92 173 1.0 8.0 0.00 0.14 0.00 50 1016.2
20260904174507 91 128 4.0 8.0 0.00 0.14 0.00 51 1016.3
20260904174004 91 138 3.0 11.0 0.00 0.14 0.00 54 1016.3
20260904173503 91 239 7.0 11.0 0.00 0.14 0.00 53 1016.4
20260904173009 91 37 6.0 9.0 0.00 0.14 0.00 54 1016.4
20260904172507 90 130 2.0 12.0 0.00 0.14 0.00 58 1016.6
20260904172004 90 116 7.0 12.0 0.00 0.14 0.00 57 1016.7
20260904171506 90 69 3.0 9.0 0.00 0.14 0.00 56 1016.9
20260904171009 90 47 4.0 9.0 0.00 0.14 0.00 56 1017.1
20260904170512 90 94 1.0 5.0 0.00 0.14 0.00 58 1017.1
20260904170004 90 130 3.0 8.0 0.00 0.14 0.00 57 1017.0
20260904165513 90 57 3.0 11.0 0.00 0.14 0.00 56 1016.9
20260904165004 90 299 2.0 11.0 0.00 0.14 0.00 57 1017.0
20260904164526 90 144 3.0 10.0 0.00 0.14 0.00 58 1017.0
20260904164005 89 29 4.0 9.0 0.00 0.14 0.00 63 1017.1
20260904163504 89 72 5.0 9.0 0.00 0.14 0.00 58 1017.3
20260904163009 89 148 1.0 7.0 0.00 0.14 0.00 61 1017.2
20260904162503 88 360 3.0 7.0 0.00 0.14 0.00 64 1017.5
20260904162004 88 62 2.0 7.0 0.00 0.14 0.00 63 1017.6
20260904161510 89 45 2.0 7.0 0.00 0.14 0.00 62 1017.7
20260904161004 90 103 3.0 9.0 0.00 0.14 0.00 61 1017.6
20260904160510 90 67 2.0 9.0 0.00 0.14 0.00 58 1017.5
20260904160016 90 62 2.0 8.0 0.00 0.14 0.00 59 1017.5
20260904155505 90 82 4.0 8.0 0.00 0.14 0.00 61 1017.6
20260904155009 89 205 2.0 6.0 0.00 0.14 0.00 62 1017.6
20260904154515 89 360 2.0 6.0 0.00 0.14 0.00 61 1017.6
20260904154004 89 333 2.0 7.0 0.00 0.14 0.00 60 1017.6
20260904153513 89 236 3.0 7.0 0.00 0.14 0.00 62 1017.7
20260904153010 88 44 2.0 8.0 0.00 0.14 0.00 65 1017.7
20260904152504 88 67 3.0 8.0 0.00 0.14 0.00 63 1017.6
20260904152005 89 105 5.0 8.0 0.00 0.14 0.00 65 1017.5
20260904151507 88 131 1.0 7.0 0.00 0.14 0.00 64 1017.5
20260904151004 88 28 4.0 7.0 0.00 0.14 0.00 64 1017.4
20260904150508 88 114 3.0 6.0 0.00 0.14 0.00 64 1017.3
20260904150009 88 139 3.0 6.0 0.00 0.14 0.00 65 1017.3
20260904145510 88 66 2.0 6.0 0.00 0.14 0.00 66 1017.2
20260904145005 88 93 2.0 6.0 0.00 0.14 0.00 66 1017.2
20260904144522 87 116 3.0 5.0 0.00 0.14 0.00 65 1017.2
20260904144010 87 276 2.0 4.0 0.00 0.14 0.00 67 1017.3
20260904143506 87 98 1.0 3.0 0.00 0.14 0.00 67 1017.1
20260904143027 86 18 0.0 5.0 0.00 0.14 0.00 67 1017.2
20260904142510 86 126 2.0 5.0 0.00 0.14 0.00 70 1017.1
20260904142006 85 127 1.0 6.0 0.00 0.14 0.00 72 1017.1
20260904141527 85 180 2.0 6.0 0.00 0.14 0.00 70 1017.2
20260904141006 86 140 2.0 4.0 0.00 0.14 0.00 70 1017.2
20260904140503 85 167 1.0 4.0 0.00 0.14 0.00 71 1017.2
20260904140010 85 211 3.0 5.0 0.00 0.14 0.00 70 1017.2
20260904135509 85 117 1.0 5.0 0.00 0.14 0.00 72 1017.2
20260904135010 84 140 1.0 4.0 0.00 0.14 0.00 74 1017.2
20260904134519 84 188 1.0 4.0 0.00 0.14 0.00 73 1017.2
20260904134007 83 90 1.0 2.0 0.00 0.14 0.00 75 1017.1
20260904133512 83 96 1.0 5.0 0.00 0.14 0.00 76 1017.0
20260904133014 83 157 3.0 4.0 0.00 0.14 0.00 74 1017.1
20260904132514 83 159 1.0 5.0 0.00 0.14 0.00 76 1017.0
20260904132013 82 144 2.0 4.0 0.00 0.14 0.00 77 1017.0
20260904131512 82 161 0.0 4.0 0.00 0.14 0.00 77 1017.0
20260904131015 81 144 1.0 3.0 0.00 0.14 0.00 79 1016.8
20260904130515 81 229 1.0 3.0 0.00 0.14 0.00 79 1016.8
20260904130007 80 162 1.0 5.0 0.00 0.14 0.00 80 1016.8
20260904125504 79 147 1.0 5.0 0.00 0.14 0.00 81 1016.8
20260904125006 79 134 2.0 4.0 0.00 0.14 0.00 82 1016.8
20260904124503 78 140 2.0 5.0 0.00 0.14 0.00 82 1016.7
20260904124002 77 188 2.0 6.0 0.00 0.14 0.00 83 1016.7
20260904123502 77 157 3.0 6.0 0.00 0.14 0.00 84 1016.7
20260904123005 76 159 2.0 5.0 0.00 0.14 0.00 86 1016.8
20260904122503 75 175 2.0 4.0 0.00 0.14 0.00 87 1016.8
20260904122003 74 172 2.0 4.0 0.00 0.14 0.00 89 1016.6
20260904121505 74 360 1.0 4.0 0.00 0.14 0.00 91 1016.7
20260904121002 73 135 2.0 3.0 0.00 0.14 0.00 91 1016.5
20260904120503 73 148 1.0 4.0 0.00 0.14 0.00 92 1016.5
20260904120005 72 123 1.0 4.0 0.00 0.14 0.00 92 1016.4
20260904115504 72 172 1.0 3.0 0.00 0.14 0.00 92 1016.3
20260904115005 72 166 0.0 0.0 0.00 0.14 0.00 92 1016.2
20260904114504 72 168 0.0 0.0 0.00 0.14 0.00 91 1016.2
20260904114004 72 173 0.0 0.0 0.00 0.14 0.00 91 1016.2
20260904113503 72 165 0.0 0.0 0.00 0.14 0.00 91 1016.2
20260904113017 72 182 0.0 1.0 0.00 0.14 0.00 91 1016.2
20260904112504 72 169 1.0 2.0 0.00 0.14 0.00 91 1016.1
20260904112003 72 184 1.0 2.0 0.00 0.14 0.00 91 1016.1
20260904111503 72 186 1.0 2.0 0.00 0.14 0.00 90 1016.0
20260904111003 72 173 0.0 2.0 0.00 0.14 0.00 90 1016.0
20260904110503 72 182 0.0 2.0 0.00 0.14 0.00 91 1016.1
20260904110020 72 178 0.0 3.0 0.00 0.14 0.00 91 1016.0
20260904105504 72 184 1.0 3.0 0.00 0.14 0.00 91 1016.0
20260904105004 72 202 1.0 3.0 0.00 0.14 0.00 91 1016.0
20260904104511 72 181 2.0 3.0 0.00 0.14 0.00 91 1015.9
20260904104004 72 178 1.0 2.0 0.00 0.14 0.00 91 1015.9
20260904103507 72 190 1.0 2.0 0.00 0.14 0.00 91 1015.8
20260904103016 72 179 1.0 2.0 0.00 0.14 0.00 91 1015.8
20260904102504 72 190 1.0 2.0 0.00 0.14 0.00 91 1015.7
20260904102005 72 211 1.0 2.0 0.00 0.14 0.00 92 1015.7
20260904101508 72 201 1.0 2.0 0.00 0.14 0.00 92 1015.8
20260904101008 72 188 0.0 2.0 0.00 0.14 0.00 92 1015.7
20260904100508 72 360 0.0 2.0 0.00 0.14 0.00 92 1015.7
20260904100004 72 198 1.0 2.0 0.00 0.14 0.00 92 1015.6
20260904095504 72 196 1.0 2.0 0.00 0.14 0.00 92 1015.5
20260904095004 72 142 1.0 2.0 0.00 0.14 0.00 92 1015.7
20260904094507 72 149 1.0 4.0 0.00 0.14 0.00 92 1015.6
20260904094005 72 190 1.0 4.0 0.00 0.14 0.00 92 1015.7
20260904093505 72 153 2.0 4.0 0.00 0.14 0.00 92 1015.6
20260904093016 72 166 2.0 3.0 0.00 0.14 0.00 92 1015.7
20260904092508 72 139 1.0 4.0 0.00 0.14 0.00 92 1015.7
20260904092004 72 150 2.0 4.0 0.00 0.14 0.00 92 1015.6
20260904091520 72 141 1.0 3.0 0.00 0.14 0.00 92 1015.7
20260904091006 72 144 1.0 3.0 0.00 0.14 0.00 92 1015.7
20260904090509 71 137 2.0 3.0 0.00 0.14 0.00 92 1015.7
20260904090020 71 143 1.0 2.0 0.00 0.14 0.00 92 1015.7
20260904085506 71 136 1.0 2.0 0.00 0.14 0.00 92 1015.6
20260904085006 71 134 1.0 3.0 0.00 0.14 0.00 91 1015.6
20260904084506 71 140 1.0 3.0 0.00 0.14 0.00 91 1015.6
20260904084005 71 148 1.0 4.0 0.00 0.14 0.00 91 1015.5
20260904083506 71 145 1.0 4.0 0.00 0.14 0.00 91 1015.6
20260904083012 71 144 2.0 3.0 0.00 0.14 0.00 91 1015.6
20260904082507 71 148 2.0 4.0 0.00 0.14 0.00 91 1015.7
20260904082007 71 360 2.0 4.0 0.00 0.14 0.00 91 1015.6
20260904081512 71 160 2.0 4.0 0.00 0.14 0.00 91 1015.6
20260904081010 72 161 1.0 4.0 0.00 0.14 0.00 91 1015.6
20260904080512 72 160 1.0 3.0 0.00 0.14 0.00 91 1015.5
20260904080010 72 360 2.0 3.0 0.00 0.14 0.00 91 1015.5
20260904075512 72 360 2.0 4.0 0.00 0.14 0.00 91 1015.6
20260904075007 72 173 2.0 4.0 0.00 0.14 0.00 91 1015.6
20260904074521 72 180 1.0 2.0 0.00 0.14 0.00 91 1015.5
20260904074011 72 183 1.0 2.0 0.00 0.14 0.00 91 1015.5
20260904073507 72 190 1.0 2.0 0.00 0.14 0.00 91 1015.6
20260904073012 72 194 1.0 2.0 0.00 0.14 0.00 91 1015.5
20260904072507 72 198 1.0 2.0 0.00 0.14 0.00 91 1015.4
20260904072007 72 213 1.0 2.0 0.00 0.14 0.00 91 1015.5
20260904071517 72 202 1.0 2.0 0.00 0.14 0.00 91 1015.6
20260904071008 72 215 0.0 2.0 0.00 0.14 0.00 91 1015.6
20260904070516 72 210 0.0 2.0 0.00 0.14 0.00 91 1015.6
20260904070038 72 215 0.0 2.0 0.00 0.14 0.00 91 1015.6
20260904065508 72 217 0.0 2.0 0.00 0.14 0.00 91 1015.5
20260904065014 73 207 0.0 0.0 0.00 0.14 0.00 91 1015.6
20260904064521 73 209 0.0 0.0 0.00 0.14 0.00 91 1015.6
20260904064005 73 197 0.0 0.0 0.00 0.14 0.00 91 1015.8
20260904063510 73 196 0.0 0.0 0.00 0.14 0.00 91 1015.9
20260904063006 73 192 0.0 0.0 0.00 0.14 0.00 91 1015.8
20260904062503 73 207 0.0 2.0 0.00 0.14 0.00 91 1015.9
20260904062003 73 180 0.0 2.0 0.00 0.14 0.00 91 1015.8
20260904061515 73 333 0.0 4.0 0.00 0.14 0.00 91 1015.8
20260904061008 72 344 1.0 4.0 0.00 0.14 0.00 91 1015.8
20260904060503 72 346 1.0 3.0 0.00 0.14 0.00 91 1015.9
20260904060003 73 345 1.0 3.0 0.00 0.14 0.00 91 1016.0
20260904055504 73 346 1.0 3.0 0.00 0.14 0.00 91 1016.0
20260904055002 73 207 1.0 4.0 0.00 0.14 0.00 91 1016.0
20260904054504 73 167 1.0 4.0 0.00 0.14 0.00 90 1015.9
20260904054005 73 150 1.0 2.0 0.00 0.14 0.00 90 1015.9
20260904053503 73 150 0.0 2.0 0.00 0.14 0.00 90 1015.9
20260904053006 73 150 0.0 2.0 0.00 0.14 0.00 91 1015.9
20260904052503 73 150 0.0 1.0 0.00 0.14 0.00 91 1016.1
20260904052004 73 152 0.0 2.0 0.00 0.14 0.00 91 1016.0
20260904051509 73 150 0.0 2.0 0.00 0.14 0.00 91 1016.0